Weather in Saint-Jean-de-Monts

France     46˚47′40″N   2˚03′26″W
temp.,
°C
wind,
m/s
gust,
m/s
humid.,
%
clouds,
%
prec.,
mm/h
press.,
hPa
HPBL,
m
16 january, sat
sat1601:00+4˚se3478100 0.0 1030186
04:00+5˚sse568093 0.0 1029278
07:00+6˚sse578196 0.0 1029387
10:00+8˚s7983100 0.1 1028598
13:00+9˚sw81288100 0.5 1026586
16:00+10˚sw101588100 0.2 1023568
19:00+11˚wsw101695100 0.6 1022447
22:00+10˚nnw71096100 2.1 1023375
17 january, sun
sun1701:00+9˚nw5892100 3.5 1024331
04:00+7˚n578838 0.0 1024297
07:00+6˚n588729 0.0 1026373
10:00+6˚n478424 0.0 1028331
13:00+8˚n457253 0.0 1030912
16:00+8˚n4470100 0.0 1029964
19:00+6˚n127199 0.0 1030249
22:00+6˚wsw1171100 0.0 1031266
18 january, mon
mon1801:00+6˚sw017297 0.0 1031311
04:00+6˚se227694 0.0 1030137
07:00+6˚sse347894 0.0 1029437
10:00+7˚sse4575100 0.0 1029630
13:00+8˚s5572100 0.0 1028863
16:00+8˚s6678100 0.0 1026602
19:00+7˚sse678398 0.0 1025458
22:00+8˚s7986100 0.0 1024429
19 january, tue
tue1901:00+8˚s7988100 0.0 1022414
04:00+9˚s71091100 0.0 1020413
07:00+9˚s71091100 0.1 1018419
10:00+10˚s9149497 0.0 1016430
13:00+10˚s10149098 0.0 1014435
16:00+10˚s91385100 0.0 1011371
19:00+10˚s91388100 0.1 1010349
22:00+10˚s71182100 0.2 1008280
20 january, wed
wed2001:00+10˚s81379100 0.2 1005261
04:00+11˚s111776100 0.0 1001475
07:00+10˚s122085100 1.0 998620
10:00+10˚ssw162387100 1.9 996837
13:00+11˚ssw162475100 3.1 993757
16:00+11˚ssw162283100 1.3 990838
19:00+11˚wsw101694100 2.5 990481
22:00+9˚w8137319 0.4 996998